Location: Unspecified
(35.7250°N, 0.0000°E)
Time: 17:56:03
(UTC+00:00)

Vanguard 1 Rocket - Pass Details

Date: 19 June 2019
Orbit: 651 x 4225 km, 34.3° (Epoch: 14 July)

Event Time Altitude Azimuth Distance (km) Brightness Sun altitude
Rises 21:10:25 0° 274° (W) 5,367 12.0 -18.3°
Reaches altitude 10° 21:14:42 10° 273° (W) 3,816 11.2 -18.9°
Maximum altitude 21:23:25 75° 191° (S) 1,023 7.4 -20.0°
Enters shadow 21:25:53 35° 112° (ESE) 1,363 7.8 -20.3°
Drops below altitude 10° 21:28:28 10° 106° (ESE) 2,271 - -20.7°
Sets 21:30:27 0° 104° (ESE) 3,066 - -20.9°
